Weather observations for the past three days for
McKinley Park, McKinley National Park Airport
Imperial (Metric)
Date Time (akdt) Wind (mph) Vis. (mi.) Weather Sky Cond. Temperature (ºF) Relative Humidity Wind Chill (°F) Heat Index (°F) Pressure Precipitation (in)
Air Dwpt 6 hour altimeter (in) sea level (mb) 1 hr 3 hr 6 hr
Max. Min.
19 08:56 E 3 10.00 Fair CLR 50 42.1 74% 30.22 1024.6
19 07:56 Calm 10.00 Fair CLR 44.1 39 83% 30.23 1024.9
19 06:56 Calm 10.00 Fair CLR 37.9 35.1 89% 30.22 1024.9
19 05:56 Calm 10.00 Fair CLR 36 34 93% 30.21 1024.7
19 04:56 Calm 10.00 Fair CLR 37.9 35.1 89% 30.2 1024.3
19 03:56 SW 5 10.00 Fair CLR 39 36 55 39 89% 36 30.19 1023.6
19 02:56 Calm 10.00 Fair CLR 41 37 86% 30.17 1023.0
19 01:56 Calm 10.00 A Few Clouds FEW055 44.1 39 83% 30.17 1022.8
19 00:56 Calm 10.00 Overcast OVC055 46 41 83% 30.15 1022.2
18 23:56 Calm 10.00 Fair CLR 48.9 44.1 83% 30.14 1021.7
18 22:56 Calm 10.00 Overcast OVC065 54 43 67% 30.12 1020.9
18 21:56 N 3 10.00 Overcast SCT044 SCT055 OVC070 55 43 60.1 55 64% 30.1 1020.4
18 20:56 N 5 10.00 Partly Cloudy FEW049 SCT065 55.9 43 62% 30.07 1019.5
18 19:56 N 7 10.00 A Few Clouds FEW080 55.9 42.1 60% 30.06 1019.2
18 18:56 N 10 G 18 10.00 Mostly Cloudy BKN085 59 43 56% 30.05 1018.7
18 17:56 N 8 10.00 Overcast OVC080 57.9 41 53% 30.04 1018.5
18 16:56 N 9 G 16 10.00 Overcast OVC075 57.9 41 53% 30.03 1018.1
18 15:56 N 9 10.00 Overcast OVC070 59 42.1 60.1 51.1 54% 30.03 1018.0
18 14:56 N 8 10.00 Mostly Cloudy BKN070 59 42.1 54% 30.02 1017.8
18 13:56 N 7 10.00 Overcast OVC050 55.9 41 57% 30.02 1017.7
18 12:56 NE 7 10.00 Mostly Cloudy BKN055 57 39 51% 30.02 1017.5
18 11:56 N 6 10.00 Overcast OVC043 54 41 62% 30.02 1017.6
18 10:56 NE 3 10.00 Overcast OVC050 52 39 61% 30.01 1017.4
18 09:56 Vrbl 3 10.00 Overcast OVC050 51.1 39.9 52 41 66% 30 1017.1
18 08:56 Calm 10.00 Overcast OVC049 48.9 41 74% 29.99 1016.6
18 07:56 Calm 10.00 Mostly Cloudy BKN065 45 41 86% 29.98 1016.4
18 06:56 Calm 10.00 Fair CLR 43 39.9 89% 29.97 1016.1
18 05:56 Calm 10.00 Overcast FEW026 OVC060 41 37.9 89% 29.96 1015.8
18 04:56 Calm 10.00 Mostly Cloudy BKN028 BKN048 43 39 86% 29.95 1015.5
18 03:56 Calm 10.00 Overcast BKN050 OVC090 44.1 39.9 53.1 44.1 85% 29.94 1014.8
18 02:56 Calm 10.00 Mostly Cloudy BKN048 45 41 86% 29.93 1014.4
18 01:56 N 5 10.00 Overcast FEW035 BKN046 OVC050 46 42.1 86% 44 29.91 1013.8
18 00:56 N 6 10.00 Overcast FEW037 SCT060 OVC090 48 42.1 80% 46 29.89 1013.2
17 23:56 N 7 10.00 Overcast SCT031 BKN047 OVC060 50 42.1 74% 48 29.87 1012.6
17 22:56 Vrbl 5 10.00 Light Rain OVC045 51.1 43 74% 29.85 1011.9
17 21:56 N 8 10.00 Overcast BKN055 OVC070 53.1 43 64 53.1 69% 29.83 1010.9
17 20:56 N 10 10.00 Overcast OVC090 55.9 42.1 60% 29.8 1009.9
17 19:56 N 8 10.00 Fair CLR 59 44.1 58% 29.78 1009.1
17 18:56 N 10 9.00 Overcast OVC065 59 44.1 58% 29.77 1008.9
17 17:56 Vrbl 3 10.00 Mostly Cloudy BKN065 62.1 34 35% 29.77 1008.9
17 16:56 Vrbl 3 10.00 A Few Clouds FEW090 61 34 36% 29.77 1009.1
17 15:56 Vrbl 6 10.00 Overcast OVC080 62.1 34 62.1 52 35% 29.78 1009.5
17 14:56 SE 6 10.00 A Few Clouds FEW065 60.1 36 41% 29.78 1009.4
17 13:56 Vrbl 3 10.00 Overcast OVC049 59 36 42% 29.79 1010.0
17 12:56 SE 8 10.00 Partly Cloudy SCT049 57 37 47% 29.81 1010.5
17 11:56 S 8 10.00 Overcast OVC042 55.9 37.9 51% 29.83 1011.1
17 10:56 Vrbl 6 10.00 Overcast FEW037 OVC050 54 37.9 55% 29.84 1011.4
17 09:56 SE 7 10.00 Overcast FEW033 OVC050 52 39.9 52 41 64% 29.85 1011.8
17 08:56 Vrbl 6 10.00 Mostly Cloudy BKN042 BKN055 51.1 39.9 66% 29.86 1012.0
17 07:56 Calm 10.00 Mostly Cloudy BKN048 48.9 39.9 71% 29.87 1012.4
17 06:56 Calm 10.00 Overcast BKN050 OVC095 46.9 39.9 77% 29.87 1012.6
17 05:56 Vrbl 3 10.00 Mostly Cloudy BKN090 44.1 37.9 79% 29.88 1013.0
17 04:56 Calm 10.00 Overcast OVC048 44.1 37.9 79% 29.89 1013.3
17 03:56 SW 3 10.00 Overcast OVC048 42.1 36 53.1 41 79% 29.89 1013.5
17 02:56 SW 3 10.00 Mostly Cloudy BKN048 42.1 36 79% 29.9 1013.7
17 01:56 Calm 10.00 Partly Cloudy SCT055 44.1 37 76% 29.9 1013.5
17 00:56 Vrbl 3 10.00 Mostly Cloudy SCT048 BKN075 48.9 37.9 66% 29.89 1013.1
16 23:56 SE 7 10.00 Mostly Cloudy BKN050 50 39 66% 48 29.88 1012.8
16 22:56 Vrbl 5 10.00 Fair CLR 51.1 39 64% 29.87 1012.4
16 21:56 S 9 10.00 Fair CLR 53.1 39 61 53.1 59% 29.86 0.0
16 20:56 SE 9 10.00 A Few Clouds FEW055 55 39 55% 29.86 0.0
16 19:56 S 6 10.00 A Few Clouds FEW050 57.9 37.9 48% 29.84 0.0
16 18:56 S 7 10.00 Fair CLR 59 36 42% 29.84 0.0
16 17:56 S 7 10.00 A Few Clouds FEW060 60.1 36 41% 29.84 0.0
16 16:56 S 6 10.00 A Few Clouds FEW044 59 37 44% 29.84 0.0
16 15:56 Vrbl 7 10.00 Partly Cloudy SCT060 57 39.9 60.1 55 53% 29.85 0.0
16 14:56 SE 8 10.00 A Few Clouds FEW040 57 41 55% 29.84 0.0
16 13:56 SE 10 10.00 Mostly Cloudy FEW042 BKN060 BKN090 57.9 39.9 51% 29.84 0.0
16 12:56 Vrbl 7 10.00 Overcast BKN060 OVC095 59 39.9 49% 29.84 0.0
16 11:56 SE 9 10.00 Overcast OVC050 57.9 37.9 48% 29.84 0.0
16 10:56 SE 7 10.00 NULL NULL 57.9 37.9 48% 29.85 0.0
16 09:56 SE 9 10.00 Mostly Cloudy BKN100 54 37.9 57 37.9 55% 29.84 1011.4
Date Time (akdt) Wind (mph) Vis. (mi.) Weather Sky Cond. Air Dwpt Max. Min. Relative Humidity Wind Chill (°F) Heat Index (°F) altimeter (in) sea level (mb) 1 hr 3 hr 6 hr
6 hour
Temperature (ºF) Pressure Precipitation (in)